Regional Weather Roundup
Issued by NWS Jackson, KY

Home | Current Version | Previous Version | Graphics & Text | Print | Product List | Glossary On
Versions: 1 2 3 4 5 6 7 8 9 10 11 12 13 14 15 16 17 18 19 20 21 22 23 24 25 26 27 28 29 30 31 32 33 34 35 36 37 38 39 40 41 42 43 44 45 46 47 48 49 50
000
ASUS43 KJKL 282211
RWRJKL

EAST KENTUCKY HOURLY WEATHER ROUNDUP
NATIONAL WEATHER SERVICE JACKSON KY
600 PM EDT THU AUG 28 2014

NOTE: "FAIR" INDICATES FEW OR NO CLOUDS BELOW 12,000 FEET WITH
NO SIGNIFICANT WEATHER AND/OR OBSTRUCTIONS TO VISIBILITY.

* THESE REPORTS ARE NOT UNDER NWS QUALITY CONTROL AND MAY NOT
  REPORT WEATHER SUCH AS PRECIPITATION AND FOG.

KYZ079-080-083-085-087-088-110-112-115-119-120-282300
...EASTERN KENTUCKY...

CITY           SKY/WX    TMP DP  RH WIND       PRES   REMARKS
JACKSON        SUNNY     82  67  60 CALM      30.06F
LONDON         SUNNY     87  70  56 VRB5      30.04S HX  92
SOMERSET*      SUNNY     86  66  51 NE7       30.02S
MONTICELLO*    MOSUNNY   89  75  63 N7        30.02S HX  98
MIDDLESBORO*   MOSUNNY   85  70  61 CALM      30.02S HX  90
HARLAN APT*    CLEAR     84  66  54 MISG      30.04F
BLACK MTN*       N/A     72  68  88 N5          N/A
PIKEVILLE APT* SUNNY     81  68  65 N3        30.07S
BIG SANDY*     CLEAR     82  68  63 N3        30.06S
MOREHEAD APT*  PTCLDY    82  64  54 NE6       30.07S
$$

KYZ035-036-041-042-044-050-067-078-099-282300
...CENTRAL KENTUCKY...

CITY           SKY/WX    TMP DP  RH WIND       PRES   REMARKS
MT STERLING*   SUNNY     82  68  61 SE6       30.05F
FLEMING/MASON* SUNNY     82  64  54 E5        30.05F
DANVILLE*      MOSUNNY   84  72  65 E7        30.03S
RICHMOND*      SUNNY     84  66  54 NE5       30.03F
LEXINGTON      SUNNY     87  68  52 NE3       30.03F HX  90
FRANKFORT      MOSUNNY   85  69  58 NE7       30.01F
$$

KYZ091>093-OHZ055-061-077-WVZ005-015-034-035-042-282300
...SOUTHERN OHIO/WEST VIRGINIA...

CITY           SKY/WX    TMP DP  RH WIND       PRES   REMARKS
COVINGTON      PTSUNNY   84  64  50 E9        30.04F
COLUMBUS       MOSUNNY   79  57  46 E3        30.08S
DAYTON         PTSUNNY   80  62  54 E9        30.08F
WILMINGTON     SUNNY     78  61  55 NE9       30.07S
HUNTINGTON     SUNNY     81  63  54 CALM      30.05S
CHARLESTON     SUNNY     82  59  45 VRB5      30.05S
PINEVILLE*     MOSUNNY   82  72  72 MISG      30.13S
BECKLEY        SUNNY     78  61  55 N8        30.12R
BLUEFIELD      MOSUNNY   80  64  58 VRB3      30.14R
$$

VAZ002-007-008-TNZ017-027-036-066-071-282300
...SOUTHWEST VIRGINIA/EAST TENNESSEE...

CITY           SKY/WX    TMP DP  RH WIND       PRES   REMARKS
WISE*          MOSUNNY   81  64  57 N5        30.14S
JONESVILLE*      N/A     82  70  65 CALM      30.06S
ABINGDON*      SUNNY     85  65  50 N6        30.08F
BRISTOL        MOSUNNY   87  66  49 N7        30.04F
OAK RIDGE      SUNNY     91  68  46 NE3       30.01F HX  95
CROSSVILLE     CLOUDY    76  70  82 NW6       30.06S THUNDER
NASHVILLE      MOSUNNY   92  69  47 E8        29.96F HX  97
$$

...KEY TO REMARKS...
VSB - VISIBILITY IN MILES
WCI - WIND CHILL INDEX
HX  - HEAT INDEX

$$



USA.gov is the U.S. government's official web portal to all federal, state and local government web resources and services.